Regional Weather Roundup
Issued by NWS

Home | Current Version | Previous Version | Graphics & Text | Print | Product List | Glossary On
Versions: 1 2 3 4 5 6 7 8 9 10 11 12 13 14 15 16 17 18 19 20 21 22 23 24 25 26 27 28 29 30 31 32 33 34 35 36 37 38 39 40 41 42 43 44 45 46 47 48 49 50
000
ASUS44 KMEG 272010
RWRTN
TENNESSEE HOURLY STATE WEATHER ROUNDUP
NATIONAL WEATHER SERVICE MEMPHIS TN
300 PM CDT MON MAR 27 2017

TNZ002-004-019-021-049-052-054-088>092-272100-
WEST TENNESSEE

CITY           SKY/WX    TMP DP  RH WIND       PRES   REMARKS
MEMPHIS INTL   PTSUNNY   79  62  56 SW17G28   29.78F
NWS MEMPHIS      N/A     78 N/A N/A MISG        N/A
JACKSON        CLOUDY    74  63  68 S16G23    29.80F
SOMERVILLE     MOSUNNY   77  66  69 S15G22    29.78F
BOLIVAR        MOSUNNY   73  64  73 S10G16    29.80F
PARIS          PTSUNNY   55  54  94 NE6       29.83F
SAVANNAH       PTSUNNY   63  61  94 SE8       29.83F FOG
$$

TNZ008-025-027-028-033-062-065-066-272100-
NORTH MIDDLE TENNESSEE

CITY           SKY/WX    TMP DP  RH WIND       PRES   REMARKS
NASHVILLE      PTSUNNY   78  57  48 S18G28    29.84F
PORTLAND       MOSUNNY   72  59  64 S16G23    29.85F
CLARKSVILLE    TSTM      66  55  67 NW32G45   29.84S SQUALL
SMYRNA         PTSUNNY   77  61  57 S15G21    29.85F
COOKEVILLE     SUNNY     75  57  53 S13       29.89F
GALLATIN       MOSUNNY   77  59  53 S12G17    29.87F
CROSSVILLE     CLOUDY    70  52  52 S15G26    29.94F
$$

TNZ061-075-076-078-094-096-097-272100-
SOUTH MIDDLE TENNESSEE

CITY           SKY/WX    TMP DP  RH WIND       PRES   REMARKS
FAYETTEVILLE   MOSUNNY   75  59  57 S13G20    29.89F
TULLAHOMA      PTSUNNY   73  54  49 SW16      29.90F
WINCHESTER     MOSUNNY   75  57  53 S14       29.90F
MCMINNVILLE    MOSUNNY   75  57  53 S9        29.90F
COLUMBIA       PTSUNNY   72  66  83 S12       29.85F
SHELBYVILLE    MOSUNNY   79  61  53 S17       29.89F
$$

TNZ017-018-042-046-047-272100-
NORTHEAST TENNESSEE

CITY           SKY/WX    TMP DP  RH WIND       PRES   REMARKS
TRI CITIES     CLOUDY    72  51  47 SW10      29.98F
ELIZABETHTON   PTSUNNY   73  48  40 W22G28    29.98S
$$

TNZ012-013-036-069-073-074-272100-
CENTRAL EAST TENNESSEE

CITY           SKY/WX    TMP DP  RH WIND       PRES   REMARKS
KNOXVILLE      CLOUDY    74  56  53 W14       29.94F
OAK RIDGE      PTSUNNY   76  54  46 SW7       29.95F
DOWNTOWN KNOXV MOSUNNY   75  59  57 W6G12     29.94F
GATLINBURG     PTSUNNY   73  55  53 E3        29.94F
MORRISTOWN     PTSUNNY   73  57  56 SW9       29.96F
JACKSBORO      MOSUNNY   75  57  53 S9G15     29.96F
$$

TNZ083-085-099-272100-
SOUTHEAST TENNESSEE

CITY           SKY/WX    TMP DP  RH WIND       PRES   REMARKS
CHATTANOOGA    CLOUDY    77  55  46 S15G22    29.92F
$$

SKY/WX REPORTED AS FAIR MEANS FEW OR NO CLOUDS BELOW
12 THOUSAND FEET.





USA.gov is the U.S. government's official web portal to all federal, state and local government web resources and services.